Powrót do katalogu

QIANFAN-159

AktywnyŁącznośćPO
NORAD 69118·PAYLOAD·🇨🇳 China

Wystrzelony May 17, 2026 z Wenchang Space Launch Site

Loading…

Następne Przeloty (najbliższe 24 godziny)

TLE

ŚwieżeSource: Space-Track

Epoka: Sep 14, 2026, 13:47 UTC

1 69118U 26108Q   26257.57451816  .00000108  00000-0  14805-3 0  9991
2 69118  89.0179  13.0686 0001880 103.0001 257.1361 13.51022615 16533

Śledź QIANFAN-159 w czasie rzeczywistym z AllMySat

Download on the App Store